Hourly Weather Abadiania

Today, 31 October, Saturday

Time Temperature Precipitation Wind Pressure Humidity
00:00 +21°C° 0.4 mm 0 mps 675 mmHg 87%
01:00 +23°C° 0.9 mm 1 mps 674 mmHg 89%
02:00 +22°C° 0.9 mm 1 mps 674 mmHg 90%
03:00 +22°C° 0 mm 1 mps 673 mmHg 88%
04:00 +22°C° 0.4 mm 1 mps 674 mmHg 90%
05:00 +22°C° 0.4 mm 1 mps 674 mmHg 91%
06:00 +21°C° 0.4 mm 1 mps 674 mmHg 92%
07:00 +22°C° 0.3 mm 1 mps 675 mmHg 90%
08:00 +23°C° 0.3 mm 1 mps 675 mmHg 88%
09:00 +23°C° 0.3 mm 1 mps 676 mmHg 86%
10:00 +24°C° 1.1 mm 2 mps 676 mmHg 83%
11:00 +26°C° 1.1 mm 2 mps 676 mmHg 80%
12:00 +27°C° 1.1 mm 3 mps 676 mmHg 77%
13:00 +26°C° 1.4 mm 3 mps 675 mmHg 80%
14:00 +25°C° 1.4 mm 3 mps 674 mmHg 83%
15:00 +24°C° 1.4 mm 3 mps 673 mmHg 86%
16:00 +24°C° 1.9 mm 3 mps 673 mmHg 89%
17:00 +23°C° 1.9 mm 2 mps 673 mmHg 91%
18:00 +21°C° 1.9 mm 2 mps 673 mmHg 94%
19:00 +21°C° 1.6 mm 2 mps 673 mmHg 94%
20:00 +21°C° 1.6 mm 2 mps 674 mmHg 95%
21:00 +20°C° 1.6 mm 2 mps 674 mmHg 96%
22:00 +21°C° 1.9 mm 1 mps 674 mmHg 96%
23:00 +21°C° 1.9 mm 1 mps 674 mmHg 97%

Tomorrow, 1 November, Sunday

Time Temperature Precipitation Wind Pressure Humidity
00:00 +21°C° 1.9 mm 1 mps 674 mmHg 97%
01:00 +21°C° 3.3 mm 1 mps 673 mmHg 97%
02:00 +21°C° 3.3 mm 1 mps 673 mmHg 97%
03:00 +21°C° 3.3 mm 1 mps 673 mmHg 97%
04:00 +21°C° 0.9 mm 1 mps 673 mmHg 97%
05:00 +21°C° 0.9 mm 1 mps 673 mmHg 97%
06:00 +21°C° 0.9 mm 1 mps 673 mmHg 97%
07:00 +21°C° 0.8 mm 1 mps 674 mmHg 96%
08:00 +22°C° 0.8 mm 1 mps 674 mmHg 95%
09:00 +20°C° 0.8 mm 0 mps 674 mmHg 94%
10:00 +21°C° 0.4 mm 0 mps 674 mmHg 91%
11:00 +21°C° 0.4 mm 0 mps 674 mmHg 88%
12:00 +22°C° 0.4 mm 0 mps 674 mmHg 85%
13:00 +24°C° 0.2 mm 1 mps 673 mmHg 86%
14:00 +24°C° 0.2 mm 1 mps 672 mmHg 86%
15:00 +24°C° 0.2 mm 1 mps 672 mmHg 86%
16:00 +23°C° 0.3 mm 1 mps 672 mmHg 87%
17:00 +23°C° 0.3 mm 1 mps 672 mmHg 88%
18:00 +23°C° 0.3 mm 1 mps 672 mmHg 89%
19:00 +22°C° 0.2 mm 1 mps 672 mmHg 91%
20:00 +21°C° 0.2 mm 1 mps 672 mmHg 93%
21:00 +21°C° 0.2 mm 1 mps 673 mmHg 94%
22:00 +20°C° 0 mm 1 mps 673 mmHg 94%
23:00 +20°C° 0 mm 1 mps 673 mmHg 94%

Day after tomorrow, 2 November, Monday

Time Temperature Precipitation Wind Pressure Humidity
00:00 +20°C° 0 mm 1 mps 672 mmHg 94%
01:00 +20°C° 0 mm 1 mps 672 mmHg 94%
02:00 +19°C° 0 mm 1 mps 672 mmHg 95%
03:00 +19°C° 0 mm 1 mps 672 mmHg 96%
04:00 +19°C° 0 mm 1 mps 672 mmHg 96%
05:00 +19°C° 0 mm 1 mps 672 mmHg 97%
06:00 +18°C° 0 mm 2 mps 672 mmHg 98%
07:00 +19°C° 0 mm 2 mps 673 mmHg 94%
08:00 +20°C° 0 mm 2 mps 673 mmHg 90%
09:00 +21°C° 0 mm 3 mps 674 mmHg 87%
10:00 +23°C° 0 mm 2 mps 674 mmHg 83%
11:00 +24°C° 0 mm 2 mps 674 mmHg 80%
12:00 +24°C° 0 mm 2 mps 674 mmHg 77%
13:00 +25°C° 0.1 mm 2 mps 673 mmHg 75%
14:00 +25°C° 0.1 mm 2 mps 673 mmHg 73%
15:00 +26°C° 0.1 mm 2 mps 672 mmHg 72%
16:00 +25°C° 0.6 mm 2 mps 672 mmHg 77%
17:00 +24°C° 0.6 mm 2 mps 672 mmHg 82%
18:00 +23°C° 0.6 mm 2 mps 672 mmHg 87%
19:00 +21°C° 0.1 mm 2 mps 672 mmHg 89%
20:00 +21°C° 0.1 mm 1 mps 672 mmHg 91%
21:00 +20°C° 0.1 mm 1 mps 673 mmHg 93%
22:00 +20°C° 0 mm 1 mps 673 mmHg 94%
23:00 +20°C° 0 mm 1 mps 673 mmHg 95%

3 November, Tuesday

Time Temperature Precipitation Wind Pressure Humidity
00:00 +19°C° 0 mm 2 mps 673 mmHg 96%
01:00 +18°C° 0 mm 2 mps 672 mmHg 97%
02:00 +18°C° 0 mm 2 mps 672 mmHg 97%
03:00 +18°C° 0 mm 2 mps 672 mmHg 98%
04:00 +18°C° 0 mm 2 mps 672 mmHg 97%
05:00 +18°C° 0 mm 2 mps 672 mmHg 95%
06:00 +19°C° 0 mm 3 mps 673 mmHg 94%
07:00 +20°C° 0 mm 3 mps 673 mmHg 90%
08:00 +21°C° 0 mm 3 mps 674 mmHg 86%
09:00 +22°C° 0 mm 3 mps 675 mmHg 82%
10:00 +24°C° 0.1 mm 3 mps 675 mmHg 76%
11:00 +26°C° 0.1 mm 2 mps 675 mmHg 71%
12:00 +27°C° 0.1 mm 2 mps 675 mmHg 65%
13:00 +27°C° 1.2 mm 2 mps 674 mmHg 68%
14:00 +26°C° 1.2 mm 1 mps 674 mmHg 70%
15:00 +26°C° 1.2 mm 1 mps 673 mmHg 72%
16:00 +25°C° 1.2 mm 1 mps 673 mmHg 77%
17:00 +24°C° 1.2 mm 1 mps 673 mmHg 82%
18:00 +23°C° 1.2 mm 1 mps 673 mmHg 86%
19:00 +22°C° 0.3 mm 1 mps 673 mmHg 87%
20:00 +21°C° 0.3 mm 1 mps 673 mmHg 88%
21:00 +21°C° 0.3 mm 1 mps 673 mmHg 89%
22:00 +20°C° 0 mm 1 mps 673 mmHg 90%
23:00 +20°C° 0 mm 1 mps 673 mmHg 91%

4 November, Wednesday

Time Temperature Precipitation Wind Pressure Humidity
00:00 +20°C° 0 mm 1 mps 673 mmHg 92%
01:00 +19°C° 0 mm 1 mps 673 mmHg 93%
02:00 +19°C° 0 mm 1 mps 673 mmHg 94%
03:00 +19°C° 0 mm 1 mps 672 mmHg 95%
04:00 +17°C° 0 mm 0 mps 673 mmHg 96%
05:00 +17°C° 0 mm 0 mps 673 mmHg 96%
06:00 +17°C° 0 mm 0 mps 673 mmHg 96%
07:00 +19°C° 0 mm 0 mps 674 mmHg 88%
08:00 +21°C° 0 mm 0 mps 675 mmHg 80%
09:00 +25°C° 0 mm 1 mps 676 mmHg 73%
10:00 +27°C° 0 mm 1 mps 676 mmHg 65%
11:00 +28°C° 0 mm 1 mps 676 mmHg 57%
12:00 +29°C° 0 mm 2 mps 676 mmHg 49%
13:00 +29°C° 0 mm 2 mps 675 mmHg 50%
14:00 +29°C° 0 mm 3 mps 674 mmHg 52%
15:00 +28°C° 0 mm 3 mps 674 mmHg 54%
16:00 +27°C° 0 mm 3 mps 673 mmHg 59%
17:00 +26°C° 0 mm 2 mps 673 mmHg 64%
18:00 +24°C° 0 mm 2 mps 673 mmHg 69%
19:00 +23°C° 0 mm 2 mps 673 mmHg 72%
20:00 +22°C° 0 mm 1 mps 674 mmHg 74%
21:00 +21°C° 0 mm 1 mps 674 mmHg 77%
22:00 +20°C° 0 mm 2 mps 674 mmHg 81%
23:00 +19°C° 0 mm 2 mps 674 mmHg 85%

5 November, Thursday

Time Temperature Precipitation Wind Pressure Humidity
00:00 +19°C° 0 mm 2 mps 674 mmHg 89%
01:00 +19°C° 0 mm 3 mps 674 mmHg 89%
02:00 +19°C° 0 mm 3 mps 673 mmHg 89%
03:00 +19°C° 0 mm 4 mps 673 mmHg 89%
04:00 +19°C° 0 mm 3 mps 673 mmHg 90%
05:00 +18°C° 0 mm 3 mps 674 mmHg 92%
06:00 +18°C° 0 mm 3 mps 674 mmHg 94%
07:00 +19°C° 0 mm 3 mps 675 mmHg 88%
08:00 +20°C° 0 mm 3 mps 675 mmHg 82%
09:00 +22°C° 0 mm 4 mps 676 mmHg 77%
10:00 +23°C° 0 mm 4 mps 676 mmHg 72%
11:00 +25°C° 0 mm 3 mps 676 mmHg 67%
12:00 +26°C° 0 mm 3 mps 676 mmHg 62%
13:00 +26°C° 0 mm 3 mps 676 mmHg 61%
14:00 +26°C° 0 mm 3 mps 675 mmHg 61%
15:00 +26°C° 0 mm 3 mps 674 mmHg 61%
16:00 +25°C° 0 mm 3 mps 674 mmHg 67%
17:00 +24°C° 0 mm 3 mps 674 mmHg 72%
18:00 +22°C° 0 mm 3 mps 674 mmHg 78%
19:00 +21°C° 0 mm 3 mps 674 mmHg 81%
20:00 +20°C° 0 mm 4 mps 674 mmHg 84%
21:00 +19°C° 0 mm 4 mps 675 mmHg 88%
22:00 +18°C° 0 mm 4 mps 675 mmHg 89%
23:00 +18°C° 0 mm 4 mps 674 mmHg 91%
Show more